Zurück zum Katalog

STARLINK-30433

AktivKommunikationVLEO
NORAD 57878·PAYLOAD·🇺🇸 United States

Gestartet Sep 16, 2023 von Cape Canaveral Space Force Station

Loading…

Nächste Überflüge (nächste 24 Stunden)

TLE

AktuellSource: CelesTrak SupGP

Epoche: Sep 15, 2026, 03:13 UTC

1 57878C 23144Q   26258.13451389  .00013630  00000+0  49358-3 0  2588
2 57878  43.0003 294.9719 0001373 264.9324 131.1418 15.27578075    19

Verfolge STARLINK-30433 in Echtzeit mit AllMySat

Download on the App Store